,,PA_Meas_PMT16A,,PR_Meas_QMR101_102,,RH_Meas_QMH101,,SR_Meas_QMS101,,TA_Meas_QMH101,,GenWind,,GenWind,
time,status,PA,status,PR,status,RH,status,SR,status,TA,status,DirAvg,status,SpdAvg,
2009-10-26, 00:00:05,VALID,917.932,VALID,0,VALID,95.3308,VALID,0,VALID,19.9158,VALID,157,VALID,0.695313,
2009-10-26, 00:01:05,VALID,917.905,VALID,0,VALID,95.0488,VALID,0.107441,VALID,19.9143,VALID,157,VALID,0.615625,
2009-10-26, 00:02:05,VALID,917.892,VALID,0,VALID,95.3384,VALID,0.107441,VALID,19.9533,VALID,157,VALID,0.717578,
2009-10-26, 00:03:05,VALID,917.881,VALID,0,VALID,95.3461,VALID,0.107441,VALID,20.0118,VALID,157,VALID,0.775,
2009-10-26, 00:04:05,VALID,917.881,VALID,0,VALID,95.1402,VALID,0,VALID,20.0118,VALID,157,VALID,0.853125,
2009-10-26, 00:05:05,VALID,917.864,VALID,0,VALID,94.9573,VALID,0,VALID,20.0313,VALID,157,VALID,0.709766,
2009-10-26, 00:06:05,VALID,917.855,VALID,0,VALID,94.9344,VALID,0.107441,VALID,20.0898,VALID,153,VALID,1.05859,
2009-10-26, 00:07:05,VALID,917.835,VALID,0,VALID,94.5913,VALID,0,VALID,20.1303,VALID,153,VALID,0.664844,
2009-10-26, 00:08:05,VALID,917.818,VALID,0,VALID,94.4846,VALID,0,VALID,20.1483,VALID,140,VALID,0.767187,
2009-10-26, 00:09:05,VALID,917.817,VALID,0,VALID,94.4694,VALID,0.107441,VALID,20.1483,VALID,141,VALID,0.598828,
2009-10-26, 00:10:05,VALID,917.788,VALID,0,VALID,94.4313,VALID,0,VALID,20.1498,VALID,140,VALID,0.823828,
2009-10-26, 00:11:05,VALID,917.788,VALID,0,VALID,94.477,VALID,0,VALID,20.1303,VALID,141,VALID,0.417188,
2009-10-26, 00:12:05,VALID,917.781,VALID,0,VALID,94.5761,VALID,0,VALID,20.1093,VALID,141,VALID,0.688672,
2009-10-26, 00:13:05,VALID,917.753,VALID,0,VALID,94.5456,VALID,0.107441,VALID,20.0898,VALID,141,VALID,0.370313,
2009-10-26, 00:14:05,VALID,917.757,VALID,0,VALID,94.5837,VALID,0.107441,VALID,20.0508,VALID,141,VALID,0.376953,
2009-10-26, 00:15:05,VALID,917.757,VALID,0,VALID,94.6218,VALID,0.107441,VALID,20.0118,VALID,140,VALID,0.776953,
2009-10-26, 00:16:05,VALID,917.744,VALID,0,VALID,94.8658,VALID,0.107441,VALID,20.0118,VALID,141,VALID,0.615625,
2009-10-26, 00:17:05,VALID,917.729,VALID,0,VALID,94.8505,VALID,0.107441,VALID,19.9728,VALID,140,VALID,0.712109,
2009-10-26, 00:18:05,VALID,917.707,VALID,0,VALID,94.9496,VALID,0.107441,VALID,19.9938,VALID,141,VALID,0.515234,
2009-10-26, 00:19:05,VALID,917.664,VALID,0,VALID,94.9725,VALID,0,VALID,19.9728,VALID,141,VALID,0.345313,
2009-10-26, 00:20:05,VALID,917.65,VALID,0,VALID,94.942,VALID,0,VALID,19.9533,VALID,141,VALID,0.534766,
2009-10-26, 00:21:05,VALID,917.671,VALID,0,VALID,95.0869,VALID,0.107441,VALID,19.9728,VALID,141,VALID,0.646094,
2009-10-26, 00:22:05,VALID,917.645,VALID,0,VALID,95.0488,VALID,0.107441,VALID,19.9728,VALID,140,VALID,0.548437,
2009-10-26, 00:23:05,VALID,917.6,VALID,0,VALID,95.003,VALID,0,VALID,19.9728,VALID,141,VALID,0.474609,
2009-10-26, 00:24:05,VALID,917.608,VALID,0,VALID,95.003,VALID,0,VALID,19.9743,VALID,140,VALID,0.250391,
2009-10-26, 00:25:05,VALID,917.612,VALID,0,VALID,95.064,VALID,0,VALID,19.9743,VALID,141,VALID,0.800391,
2009-10-26, 00:26:05,VALID,917.629,VALID,0,VALID,95.0183,VALID,0,VALID,19.9743,VALID,141,VALID,0.825391,
2009-10-26, 00:27:05,VALID,917.583,VALID,0,VALID,95.0564,VALID,0,VALID,19.9743,VALID,169,VALID,0.869141,
2009-10-26, 00:28:04,VALID,917.596,VALID,0,VALID,94.9878,VALID,0,VALID,19.9353,VALID,169,VALID,0.763281,
2009-10-26, 00:29:04,VALID,917.569,VALID,0,VALID,94.9496,VALID,0,VALID,19.8963,VALID,169,VALID,0.676562,
2009-10-26, 00:30:04,VALID,917.563,VALID,0,VALID,95.125,VALID,0,VALID,19.8378,VALID,169,VALID,0.666406,
2009-10-26, 00:31:04,VALID,917.525,VALID,0,VALID,95.2622,VALID,0,VALID,19.8183,VALID,169,VALID,0.614453,
2009-10-26, 00:32:04,VALID,917.52,VALID,0,VALID,95.5367,VALID,0,VALID,19.7988,VALID,168,VALID,1.33281,
2009-10-26, 00:33:04,VALID,917.531,VALID,0,VALID,95.6891,VALID,0,VALID,19.8378,VALID,168,VALID,0.697656,
2009-10-26, 00:34:04,VALID,917.502,VALID,0,VALID,95.7044,VALID,0,VALID,19.8183,VALID,168,VALID,1.0707,
2009-10-26, 00:35:04,VALID,917.486,VALID,0,VALID,95.6586,VALID,0,VALID,19.8183,VALID,168,VALID,1.025,
2009-10-26, 00:36:04,VALID,917.506,VALID,0,VALID,95.7272,VALID,0,VALID,19.8183,VALID,163,VALID,1.3293,
2009-10-26, 00:37:04,VALID,917.492,VALID,0,VALID,95.7044,VALID,0,VALID,19.8198,VALID,138,VALID,1.10742,
2009-10-26, 00:38:04,VALID,917.471,VALID,0,VALID,95.6586,VALID,0,VALID,19.7988,VALID,137,VALID,1.02578,
2009-10-26, 00:39:04,VALID,917.451,VALID,0,VALID,95.6357,VALID,0,VALID,19.7793,VALID,135,VALID,1.00195,
2009-10-26, 00:40:04,VALID,917.448,VALID,0,VALID,95.834,VALID,0,VALID,19.7583,VALID,127,VALID,1.4832,
2009-10-26, 00:41:04,VALID,917.441,VALID,0,VALID,95.8873,VALID,0,VALID,19.7988,VALID,125,VALID,1.17344,
2009-10-26, 00:42:04,VALID,917.435,VALID,0,VALID,95.8645,VALID,0,VALID,19.7988,VALID,120,VALID,1.15039,
2009-10-26, 00:43:04,VALID,917.428,VALID,0,VALID,95.7882,VALID,0,VALID,19.7793,VALID,119,VALID,1.11836,
2009-10-26, 00:44:04,VALID,917.438,VALID,0,VALID,95.59,VALID,0,VALID,19.7598,VALID,118,VALID,0.876953,
2009-10-26, 00:45:04,VALID,917.393,VALID,0,VALID,95.6739,VALID,0,VALID,19.7598,VALID,118,VALID,1.01719,
2009-10-26, 00:46:04,VALID,917.376,VALID,0,VALID,95.6586,VALID,0,VALID,19.7598,VALID,118,VALID,1.04219,
2009-10-26, 00:47:04,VALID,917.389,VALID,0,VALID,95.6967,VALID,0,VALID,19.7598,VALID,118,VALID,1.11602,
2009-10-26, 00:48:04,VALID,917.355,VALID,0,VALID,95.773,VALID,0,VALID,19.7403,VALID,118,VALID,1.04102,
2009-10-26, 00:49:04,VALID,917.351,VALID,0,VALID,95.7272,VALID,0,VALID,19.7208,VALID,117,VALID,0.815625,
2009-10-26, 00:50:04,VALID,917.333,VALID,0,VALID,95.8568,VALID,0,VALID,19.7013,VALID,117,VALID,0.947266,
2009-10-26, 00:51:04,VALID,917.327,VALID,0,VALID,95.9864,VALID,0,VALID,19.6818,VALID,116,VALID,1.02773,
2009-10-26, 00:52:04,VALID,917.319,VALID,0,VALID,95.9026,VALID,0,VALID,19.6428,VALID,116,VALID,0.712891,
2009-10-26, 00:53:04,VALID,917.316,VALID,0,VALID,96.0855,VALID,0,VALID,19.6428,VALID,116,VALID,0.993359,
2009-10-26, 00:54:04,VALID,917.283,VALID,0,VALID,96.1389,VALID,0,VALID,19.6038,VALID,116,VALID,0.608594,
2009-10-26, 00:55:04,VALID,917.29,VALID,0,VALID,96.1923,VALID,0,VALID,19.5828,VALID,116,VALID,0.700391,
2009-10-26, 00:56:04,VALID,917.277,VALID,0,VALID,96.2456,VALID,0,VALID,19.5648,VALID,116,VALID,0.671094,
2009-10-26, 00:57:04,VALID,917.262,VALID,0,VALID,96.299,VALID,0,VALID,19.5648,VALID,116,VALID,0.84375,
2009-10-26, 00:58:04,VALID,917.24,VALID,0,VALID,96.3371,VALID,0,VALID,19.5453,VALID,116,VALID,0.658594,
2009-10-26, 00:59:04,VALID,917.235,VALID,0,VALID,96.3829,VALID,0,VALID,19.5243,VALID,116,VALID,0.675781,
2009-10-26, 01:00:04,VALID,917.204,VALID,0,VALID,96.4438,VALID,0,VALID,19.5453,VALID,116,VALID,0.712891,
2009-10-26, 01:01:04,VALID,917.205,VALID,0,VALID,96.4667,VALID,0,VALID,19.5648,VALID,116,VALID,0.717188,
2009-10-26, 01:02:04,VALID,917.209,VALID,0,VALID,96.5048,VALID,0,VALID,19.5438,VALID,116,VALID,1.04297,
2009-10-26, 01:03:04,VALID,917.174,VALID,0,VALID,96.4972,VALID,0.107441,VALID,19.5843,VALID,116,VALID,1.06641,
2009-10-26, 01:04:04,VALID,917.157,VALID,0,VALID,96.4743,VALID,0,VALID,19.6038,VALID,116,VALID,0.891016,
2009-10-26, 01:05:04,VALID,917.161,VALID,0,VALID,96.36,VALID,0,VALID,19.6053,VALID,116,VALID,1.14805,
2009-10-26, 01:06:04,VALID,917.169,VALID,0,VALID,96.2914,VALID,0,VALID,19.5843,VALID,116,VALID,1.05859,
2009-10-26, 01:07:04,VALID,917.145,VALID,0,VALID,96.2533,VALID,0,VALID,19.6038,VALID,116,VALID,1.08398,
2009-10-26, 01:08:04,VALID,917.15,VALID,0,VALID,96.238,VALID,0,VALID,19.6233,VALID,116,VALID,1.13125,
2009-10-26, 01:09:04,VALID,917.139,VALID,0,VALID,96.1465,VALID,0,VALID,19.6038,VALID,116,VALID,1.13359,
2009-10-26, 01:10:04,VALID,917.099,VALID,0,VALID,96.0855,VALID,0,VALID,19.6038,VALID,116,VALID,0.858594,
2009-10-26, 01:11:04,VALID,917.116,VALID,0,VALID,96.0855,VALID,0,VALID,19.6038,VALID,116,VALID,0.819141,
2009-10-26, 01:12:04,VALID,917.104,VALID,0,VALID,96.1008,VALID,0,VALID,19.5843,VALID,116,VALID,1.08164,
2009-10-26, 01:13:04,VALID,917.097,VALID,0,VALID,96.0627,VALID,0,VALID,19.5843,VALID,116,VALID,0.857813,
2009-10-26, 01:14:04,VALID,917.091,VALID,0,VALID,96.1618,VALID,0,VALID,19.5843,VALID,116,VALID,0.889844,
2009-10-26, 01:15:04,VALID,917.094,VALID,0,VALID,96.2609,VALID,0,VALID,19.5648,VALID,116,VALID,1.03359,
2009-10-26, 01:16:04,VALID,917.078,VALID,0,VALID,96.1465,VALID,0,VALID,19.5258,VALID,116,VALID,0.897266,
2009-10-26, 01:17:04,VALID,917.069,VALID,0,VALID,96.1084,VALID,0,VALID,19.5063,VALID,116,VALID,0.903516,
2009-10-26, 01:18:04,VALID,917.038,VALID,0,VALID,96.1923,VALID,0,VALID,19.5063,VALID,116,VALID,0.764063,
2009-10-26, 01:19:04,VALID,917.042,VALID,0,VALID,96.1999,VALID,0,VALID,19.4868,VALID,116,VALID,0.675781,
2009-10-26, 01:20:04,VALID,916.987,VALID,0,VALID,96.2304,VALID,0,VALID,19.4478,VALID,116,VALID,0.723437,
2009-10-26, 01:21:04,VALID,916.989,VALID,0,VALID,96.3905,VALID,0,VALID,19.4478,VALID,116,VALID,0.805469,
2009-10-26, 01:22:04,VALID,916.985,VALID,0,VALID,96.4057,VALID,0,VALID,19.4478,VALID,116,VALID,0.8375,
2009-10-26, 01:23:04,VALID,916.915,VALID,0,VALID,96.5124,VALID,0,VALID,19.4688,VALID,116,VALID,1.05352,
2009-10-26, 01:24:04,VALID,916.919,VALID,0,VALID,96.5277,VALID,0.107441,VALID,19.4658,VALID,116,VALID,1.05391,
2009-10-26, 01:25:04,VALID,916.893,VALID,0,VALID,96.5811,VALID,0.107441,VALID,19.4644,VALID,116,VALID,1.09023,
2009-10-26, 01:26:04,VALID,916.911,VALID,0,VALID,96.4972,VALID,0.107441,VALID,19.4853,VALID,116,VALID,0.787891,
2009-10-26, 01:27:04,VALID,916.863,VALID,0,VALID,96.5048,VALID,0,VALID,19.4853,VALID,116,VALID,1.12852,
2009-10-26, 01:28:04,VALID,916.881,VALID,0,VALID,96.4362,VALID,0.107441,VALID,19.4853,VALID,116,VALID,0.819141,
2009-10-26, 01:29:04,VALID,916.875,VALID,0,VALID,96.4743,VALID,0.107441,VALID,19.4853,VALID,116,VALID,0.777344,
2009-10-26, 01:30:04,VALID,916.861,VALID,0,VALID,96.421,VALID,0,VALID,19.4853,VALID,116,VALID,1.29805,
2009-10-26, 01:31:04,VALID,916.837,VALID,0,VALID,96.3676,VALID,0.107441,VALID,19.4853,VALID,116,VALID,1.05859,
2009-10-26, 01:32:04,VALID,916.852,VALID,0,VALID,96.4057,VALID,0.107441,VALID,19.5048,VALID,116,VALID,0.704297,
2009-10-26, 01:33:04,VALID,916.848,VALID,0,VALID,96.4362,VALID,0,VALID,19.5048,VALID,116,VALID,1.18164,
2009-10-26, 01:34:04,VALID,916.824,VALID,0,VALID,96.3981,VALID,0.107441,VALID,19.4853,VALID,116,VALID,1.00117,
2009-10-26, 01:35:04,VALID,916.817,VALID,0,VALID,96.3829,VALID,0.107441,VALID,19.5048,VALID,116,VALID,0.884766,
2009-10-26, 01:36:04,VALID,916.822,VALID,0,VALID,96.4362,VALID,0.107441,VALID,19.5243,VALID,116,VALID,0.870703,
2009-10-26, 01:37:04,VALID,916.799,VALID,0,VALID,96.3371,VALID,0.107441,VALID,19.4853,VALID,116,VALID,0.599609,
2009-10-26, 01:38:04,VALID,916.796,VALID,0,VALID,96.1313,VALID,0.107441,VALID,19.4463,VALID,116,VALID,0.625781,
2009-10-26, 01:39:04,VALID,916.821,VALID,0,VALID,96.0474,VALID,0,VALID,19.4298,VALID,116,VALID,0.521875,
2009-10-26, 01:40:04,VALID,916.831,VALID,0,VALID,95.8492,VALID,0,VALID,19.3503,VALID,116,VALID,0.735937,
2009-10-26, 01:41:04,VALID,916.826,VALID,0,VALID,96.1694,VALID,0,VALID,19.3503,VALID,116,VALID,0.834766,
2009-10-26, 01:42:04,VALID,916.829,VALID,0,VALID,96.3447,VALID,0,VALID,19.3308,VALID,116,VALID,0.890234,
2009-10-26, 01:43:04,VALID,916.84,VALID,0,VALID,96.4972,VALID,0,VALID,19.3323,VALID,116,VALID,0.911328,
2009-10-26, 01:44:04,VALID,916.814,VALID,0,VALID,96.5353,VALID,0,VALID,19.3113,VALID,116,VALID,1.05391,
2009-10-26, 01:45:04,VALID,916.832,VALID,0,VALID,96.6497,VALID,0.107441,VALID,19.3308,VALID,116,VALID,1.13164,
2009-10-26, 01:46:04,VALID,916.817,VALID,0,VALID,96.6878,VALID,0,VALID,19.3503,VALID,116,VALID,1.15703,
2009-10-26, 01:47:04,VALID,916.826,VALID,0,VALID,96.642,VALID,0,VALID,19.3503,VALID,116,VALID,0.915234,
2009-10-26, 01:48:04,VALID,916.825,VALID,0,VALID,96.5963,VALID,0,VALID,19.3503,VALID,116,VALID,1.12422,
2009-10-26, 01:49:04,VALID,916.798,VALID,0,VALID,96.6268,VALID,0,VALID,19.3503,VALID,116,VALID,0.775781,
2009-10-26, 01:50:04,VALID,916.788,VALID,0,VALID,96.5963,VALID,0.107441,VALID,19.3294,VALID,116,VALID,0.691016,
2009-10-26, 01:51:04,VALID,916.793,VALID,0,VALID,96.4972,VALID,0,VALID,19.3308,VALID,115,VALID,0.467187,
2009-10-26, 01:52:04,VALID,916.811,VALID,0,VALID,96.5658,VALID,0,VALID,19.3099,VALID,115,VALID,0.502344,
2009-10-26, 01:53:04,VALID,916.816,VALID,0,VALID,96.6039,VALID,0.107441,VALID,19.3113,VALID,115,VALID,0.419531,
2009-10-26, 01:54:04,VALID,916.775,VALID,0,VALID,96.6497,VALID,0,VALID,19.3308,VALID,115,VALID,0.620703,
2009-10-26, 01:55:04,VALID,916.802,VALID,0,VALID,96.6573,VALID,0,VALID,19.3113,VALID,115,VALID,0.719531,
2009-10-26, 01:56:04,VALID,916.784,VALID,0,VALID,96.7183,VALID,0,VALID,19.2709,VALID,115,VALID,0.594922,
2009-10-26, 01:57:04,VALID,916.769,VALID,0,VALID,96.6573,VALID,0,VALID,19.2514,VALID,115,VALID,0.736719,
2009-10-26, 01:58:04,VALID,916.763,VALID,0,VALID,96.7793,VALID,0.107441,VALID,19.2723,VALID,115,VALID,0.588672,
2009-10-26, 01:59:04,VALID,916.783,VALID,0,VALID,96.8479,VALID,0,VALID,19.2918,VALID,115,VALID,0.80625,
2009-10-26, 02:00:04,VALID,916.768,VALID,0,VALID,96.9012,VALID,0,VALID,19.2904,VALID,115,VALID,0.594531,
2009-10-26, 02:01:04,VALID,916.789,VALID,0,VALID,96.9165,VALID,0.107441,VALID,19.3099,VALID,115,VALID,0.690625,
2009-10-26, 02:02:04,VALID,916.771,VALID,0,VALID,96.9089,VALID,0.107441,VALID,19.3099,VALID,115,VALID,0.637891,
2009-10-26, 02:03:04,VALID,916.792,VALID,0,VALID,96.8479,VALID,0,VALID,19.3113,VALID,115,VALID,0.969141,
2009-10-26, 02:04:04,VALID,916.765,VALID,0,VALID,96.9317,VALID,0.107441,VALID,19.3503,VALID,115,VALID,1.21406,
2009-10-26, 02:05:04,VALID,916.763,VALID,0,VALID,96.8631,VALID,0.107441,VALID,19.3099,VALID,115,VALID,0.95625,
2009-10-26, 02:06:04,VALID,916.748,VALID,0,VALID,96.8098,VALID,0,VALID,19.3099,VALID,115,VALID,1.08438,
2009-10-26, 02:07:04,VALID,916.764,VALID,0,VALID,96.8326,VALID,0,VALID,19.3294,VALID,115,VALID,0.955859,
2009-10-26, 02:08:04,VALID,916.742,VALID,0,VALID,96.8174,VALID,0.107441,VALID,19.3294,VALID,115,VALID,1.12227,
2009-10-26, 02:09:04,VALID,916.756,VALID,0,VALID,96.7488,VALID,0,VALID,19.2918,VALID,115,VALID,0.828516,
2009-10-26, 02:10:04,VALID,916.721,VALID,0,VALID,96.7107,VALID,0,VALID,19.2918,VALID,115,VALID,0.878125,
2009-10-26, 02:11:04,VALID,916.726,VALID,0,VALID,96.6649,VALID,0,VALID,19.2528,VALID,115,VALID,0.869141,
2009-10-26, 02:12:04,VALID,916.719,VALID,0,VALID,96.6344,VALID,0,VALID,19.2139,VALID,115,VALID,0.600781,
2009-10-26, 02:13:04,VALID,916.731,VALID,0,VALID,96.7488,VALID,0,VALID,19.2139,VALID,115,VALID,0.969531,
2009-10-26, 02:14:04,VALID,916.733,VALID,0,VALID,96.7411,VALID,0,VALID,19.1944,VALID,115,VALID,0.857422,
2009-10-26, 02:15:04,VALID,916.717,VALID,0,VALID,96.6573,VALID,0,VALID,19.1749,VALID,115,VALID,0.699219,
2009-10-26, 02:16:04,VALID,916.706,VALID,0,VALID,96.7716,VALID,0,VALID,19.1554,VALID,115,VALID,1.00352,
2009-10-26, 02:17:04,VALID,916.72,VALID,0,VALID,96.642,VALID,0,VALID,19.1164,VALID,115,VALID,0.604688,
2009-10-26, 02:18:04,VALID,916.733,VALID,0,VALID,96.6115,VALID,0,VALID,19.0969,VALID,115,VALID,0.793359,
2009-10-26, 02:19:04,VALID,916.699,VALID,0,VALID,96.6268,VALID,0,VALID,19.0369,VALID,115,VALID,0.6625,
2009-10-26, 02:20:04,VALID,916.727,VALID,0,VALID,96.764,VALID,0,VALID,19.0579,VALID,115,VALID,0.823438,
2009-10-26, 02:21:04,VALID,916.718,VALID,0,VALID,96.6954,VALID,0,VALID,19.0398,VALID,115,VALID,0.755078,
2009-10-26, 02:22:04,VALID,916.721,VALID,0,VALID,96.7869,VALID,0,VALID,19.0384,VALID,115,VALID,0.778125,
2009-10-26, 02:23:04,VALID,916.727,VALID,0,VALID,96.6268,VALID,0,VALID,18.9799,VALID,115,VALID,0.740625,
2009-10-26, 02:24:04,VALID,916.728,VALID,0,VALID,96.9394,VALID,0,VALID,19.0189,VALID,115,VALID,1.03945,
2009-10-26, 02:25:04,VALID,916.703,VALID,0,VALID,97.0537,VALID,0,VALID,19.0384,VALID,114,VALID,1.1543,
2009-10-26, 02:26:04,VALID,916.697,VALID,0,VALID,97.0461,VALID,0,VALID,19.0189,VALID,114,VALID,0.907812,
2009-10-26, 02:27:04,VALID,916.694,VALID,0,VALID,96.9927,VALID,0,VALID,19.0189,VALID,114,VALID,1.0293,
2009-10-26, 02:28:04,VALID,916.687,VALID,0,VALID,97.0232,VALID,0,VALID,19.0189,VALID,114,VALID,0.983203,
2009-10-26, 02:29:04,VALID,916.674,VALID,0,VALID,97.0385,VALID,0,VALID,19.0189,VALID,114,VALID,0.858203,
2009-10-26, 02:30:04,VALID,916.641,VALID,0,VALID,97.1071,VALID,0,VALID,19.0384,VALID,114,VALID,0.788672,
2009-10-26, 02:31:04,VALID,916.668,VALID,0,VALID,97.1452,VALID,0,VALID,19.0384,VALID,114,VALID,1.25625,
2009-10-26, 02:32:04,VALID,916.657,VALID,0,VALID,97.1452,VALID,0,VALID,19.0579,VALID,114,VALID,0.811328,
2009-10-26, 02:33:04,VALID,916.657,VALID,0,VALID,97.069,VALID,0,VALID,19.0384,VALID,114,VALID,0.611719,
2009-10-26, 02:34:04,VALID,916.618,VALID,0,VALID,97.0385,VALID,0,VALID,19.0203,VALID,114,VALID,0.828516,
2009-10-26, 02:35:04,VALID,916.629,VALID,0,VALID,97.0994,VALID,0,VALID,18.9994,VALID,114,VALID,0.938672,
2009-10-26, 02:36:04,VALID,916.596,VALID,0,VALID,97.1299,VALID,0,VALID,19.0384,VALID,114,VALID,0.869141,
2009-10-26, 02:37:04,VALID,916.608,VALID,0,VALID,97.1604,VALID,0,VALID,19.0579,VALID,114,VALID,1.0543,
2009-10-26, 02:38:04,VALID,916.555,VALID,0,VALID,97.1681,VALID,0,VALID,19.0774,VALID,114,VALID,1.11719,
2009-10-26, 02:39:04,VALID,916.558,VALID,0,VALID,97.1833,VALID,0,VALID,19.1373,VALID,114,VALID,1.08047,
2009-10-26, 02:40:04,VALID,916.529,VALID,0,VALID,97.1909,VALID,0,VALID,19.1164,VALID,114,VALID,0.976953,
2009-10-26, 02:41:04,VALID,916.507,VALID,0,VALID,97.1604,VALID,0,VALID,19.1164,VALID,114,VALID,0.917969,
2009-10-26, 02:42:04,VALID,916.502,VALID,0,VALID,97.1147,VALID,0,VALID,19.1164,VALID,114,VALID,0.825391,
2009-10-26, 02:43:04,VALID,916.546,VALID,0,VALID,97.1071,VALID,0,VALID,19.1164,VALID,114,VALID,0.914844,
2009-10-26, 02:44:04,VALID,916.54,VALID,0,VALID,97.1071,VALID,0,VALID,19.1359,VALID,114,VALID,0.751953,
2009-10-26, 02:45:04,VALID,916.557,VALID,0,VALID,97.0156,VALID,0.107441,VALID,19.1359,VALID,114,VALID,0.443359,
2009-10-26, 02:46:04,VALID,916.591,VALID,0,VALID,96.9546,VALID,0,VALID,19.0774,VALID,114,VALID,0.320313,
2009-10-26, 02:47:04,VALID,916.615,VALID,0,VALID,96.9089,VALID,0,VALID,19.0788,VALID,114,VALID,0.167578,
2009-10-26, 02:48:04,VALID,916.636,VALID,0,VALID,96.9317,VALID,0,VALID,19.0579,VALID,114,VALID,0,
2009-10-26, 02:49:04,VALID,916.669,VALID,0,VALID,96.9698,VALID,0,VALID,19.0774,VALID,114,VALID,0,
2009-10-26, 02:50:04,VALID,916.683,VALID,0,VALID,97.0232,VALID,0,VALID,19.0969,VALID,114,VALID,0.163281,
2009-10-26, 02:51:04,VALID,916.68,VALID,0,VALID,97.0385,VALID,0,VALID,19.1164,VALID,114,VALID,0.311328,
2009-10-26, 02:52:04,VALID,916.713,VALID,0,VALID,96.9775,VALID,0,VALID,19.1359,VALID,114,VALID,0.232422,
2009-10-26, 02:53:04,VALID,916.703,VALID,0,VALID,96.9927,VALID,0,VALID,19.1359,VALID,114,VALID,0.112109,
2009-10-26, 02:54:04,VALID,916.694,VALID,0,VALID,96.947,VALID,0,VALID,19.1359,VALID,114,VALID,0,
2009-10-26, 02:55:04,VALID,916.701,VALID,0,VALID,97.0537,VALID,0,VALID,19.1359,VALID,114,VALID,0.280469,
2009-10-26, 02:56:04,VALID,916.69,VALID,0,VALID,97.0842,VALID,0,VALID,19.1944,VALID,114,VALID,0.215234,
2009-10-26, 02:57:04,VALID,916.704,VALID,0,VALID,97.0537,VALID,0,VALID,19.2139,VALID,114,VALID,0.0175781,
2009-10-26, 02:58:04,VALID,916.686,VALID,0,VALID,96.7107,VALID,0,VALID,19.1749,VALID,114,VALID,0,
2009-10-26, 02:59:04,VALID,916.675,VALID,0,VALID,96.5429,VALID,0,VALID,19.1164,VALID,114,VALID,0,
2009-10-26, 03:00:04,VALID,916.686,VALID,0,VALID,96.0703,VALID,0,VALID,18.9994,VALID,114,VALID,0,
2009-10-26, 03:01:04,VALID,916.668,VALID,0,VALID,96.0779,VALID,0,VALID,18.9409,VALID,114,VALID,0,
2009-10-26, 03:02:04,VALID,916.683,VALID,0,VALID,96.1541,VALID,0,VALID,18.9409,VALID,114,VALID,0,
2009-10-26, 03:03:04,VALID,916.693,VALID,0,VALID,96.2075,VALID,0,VALID,18.9214,VALID,114,VALID,0,
2009-10-26, 03:04:04,VALID,916.673,VALID,0,VALID,96.3981,VALID,0,VALID,18.9214,VALID,114,VALID,0,
2009-10-26, 03:05:04,VALID,916.676,VALID,0,VALID,96.3752,VALID,0,VALID,18.9214,VALID,114,VALID,0,
2009-10-26, 03:06:04,VALID,916.675,VALID,0,VALID,95.9254,VALID,0,VALID,18.824,VALID,114,VALID,0,
2009-10-26, 03:07:04,VALID,916.649,VALID,0,VALID,96.0169,VALID,0,VALID,18.785,VALID,114,VALID,0,
2009-10-26, 03:08:04,VALID,916.656,VALID,0,VALID,96.3524,VALID,0,VALID,18.785,VALID,114,VALID,0,
2009-10-26, 03:09:04,VALID,916.666,VALID,0,VALID,96.4743,VALID,0.107441,VALID,18.824,VALID,114,VALID,0,
2009-10-26, 03:10:04,VALID,916.66,VALID,0,VALID,96.6649,VALID,0.107441,VALID,18.803,VALID,114,VALID,0,
2009-10-26, 03:11:04,VALID,916.661,VALID,0,VALID,96.7335,VALID,0.107441,VALID,18.803,VALID,114,VALID,0,
2009-10-26, 03:12:04,VALID,916.673,VALID,0,VALID,96.8555,VALID,0,VALID,18.8225,VALID,114,VALID,0,
2009-10-26, 03:13:04,VALID,916.665,VALID,0,VALID,96.8098,VALID,0.107441,VALID,18.803,VALID,114,VALID,0,
2009-10-26, 03:14:04,VALID,916.688,VALID,0,VALID,96.9241,VALID,0.107441,VALID,18.803,VALID,114,VALID,0,
2009-10-26, 03:15:04,VALID,916.693,VALID,0,VALID,96.9394,VALID,0.107441,VALID,18.803,VALID,114,VALID,0.428906,
2009-10-26, 03:16:04,VALID,916.672,VALID,0,VALID,96.7716,VALID,0.107441,VALID,18.764,VALID,114,VALID,0.468359,
2009-10-26, 03:17:04,VALID,916.693,VALID,0,VALID,96.5582,VALID,0.107441,VALID,18.668,VALID,114,VALID,0.381641,
2009-10-26, 03:18:04,VALID,916.715,VALID,0,VALID,97.0918,VALID,0.107441,VALID,18.803,VALID,114,VALID,0.303516,
2009-10-26, 03:19:04,VALID,916.697,VALID,0,VALID,97.29,VALID,0,VALID,18.9005,VALID,114,VALID,0.235156,
2009-10-26, 03:20:04,VALID,916.707,VALID,0,VALID,97.3129,VALID,0.107441,VALID,18.959,VALID,114,VALID,0.185156,
2009-10-26, 03:21:04,VALID,916.695,VALID,0,VALID,97.1376,VALID,0.107441,VALID,18.92,VALID,114,VALID,0.0527344,
2009-10-26, 03:22:04,VALID,916.706,VALID,0,VALID,97.0385,VALID,0.107441,VALID,18.881,VALID,114,VALID,0,
2009-10-26, 03:23:04,VALID,916.701,VALID,0,VALID,97.0156,VALID,0.107441,VALID,18.842,VALID,114,VALID,0,
2009-10-26, 03:24:04,VALID,916.703,VALID,0,VALID,97.0766,VALID,0,VALID,18.9019,VALID,114,VALID,0.334766,
2009-10-26, 03:25:04,VALID,916.687,VALID,0,VALID,97.1833,VALID,0,VALID,18.9424,VALID,114,VALID,0.381641,
2009-10-26, 03:26:04,VALID,916.658,VALID,0,VALID,97.3129,VALID,0,VALID,19.0189,VALID,114,VALID,0.41875,
2009-10-26, 03:27:04,VALID,916.642,VALID,0,VALID,97.2977,VALID,0,VALID,19.0384,VALID,114,VALID,0.451562,
2009-10-26, 03:28:04,VALID,916.649,VALID,0,VALID,97.1757,VALID,0,VALID,19.0189,VALID,115,VALID,0.348828,
2009-10-26, 03:29:04,VALID,916.603,VALID,0,VALID,97.0461,VALID,0,VALID,18.9799,VALID,114,VALID,0.156641,
2009-10-26, 03:30:04,VALID,916.632,VALID,0,VALID,96.9775,VALID,0,VALID,18.9604,VALID,114,VALID,0.101563,
2009-10-26, 03:31:04,VALID,916.619,VALID,0,VALID,97.0003,VALID,0,VALID,18.9604,VALID,114,VALID,0.153125,
2009-10-26, 03:32:04,VALID,916.632,VALID,0,VALID,96.886,VALID,0,VALID,18.9409,VALID,114,VALID,0.242188,
2009-10-26, 03:33:04,VALID,916.632,VALID,0,VALID,96.8174,VALID,0,VALID,18.8629,VALID,114,VALID,0.246094,
2009-10-26, 03:34:04,VALID,916.612,VALID,0,VALID,97.1299,VALID,0,VALID,18.9604,VALID,114,VALID,0.359375,
2009-10-26, 03:35:04,VALID,916.657,VALID,0,VALID,97.2519,VALID,0,VALID,19.0579,VALID,114,VALID,0.300391,
2009-10-26, 03:36:04,VALID,916.631,VALID,0,VALID,97.2214,VALID,0,VALID,19.1164,VALID,114,VALID,0.485156,
2009-10-26, 03:37:04,VALID,916.618,VALID,0,VALID,97.008,VALID,0,VALID,19.1359,VALID,114,VALID,0.666797,
2009-10-26, 03:38:04,VALID,916.631,VALID,0,VALID,96.6802,VALID,0,VALID,19.1164,VALID,114,VALID,0.739844,
2009-10-26, 03:39:04,VALID,916.654,VALID,0,VALID,96.6344,VALID,0.107441,VALID,19.1944,VALID,114,VALID,0.713672,
2009-10-26, 03:40:04,VALID,916.659,VALID,0,VALID,96.6725,VALID,0.107441,VALID,19.2528,VALID,114,VALID,0.963672,
2009-10-26, 03:41:04,VALID,916.66,VALID,0,VALID,96.5124,VALID,0.107441,VALID,19.3099,VALID,114,VALID,0.954687,
2009-10-26, 03:42:04,VALID,916.662,VALID,0,VALID,96.055,VALID,0.107441,VALID,19.3099,VALID,114,VALID,0.895312,